This is the latest recevied weather packets stored in our database for station/object N2PPN. If no packets are shown the sender has not sent any weather packets the latest 10 day(s).
| Time | Temp. | Humidity | Pressure | Rain* | Wind** | Luminosity | Snow |
|---|---|---|---|---|---|---|---|
| 1777891500 | 10° C | 64% | 1017.3 hPa | 0 mm | - | 37 W/m² | - |
| 1777891195 | 10° C | 63% | 1017.2 hPa | 0 mm | - | 32 W/m² | - |
| 1777890889 | 10° C | 64% | 1017.4 hPa | 0 mm | - | 30 W/m² | - |
| 1777890586 | 10° C | 64% | 1017.3 hPa | 0 mm | - | 26 W/m² | - |
| 1777890281 | 10° C | 64% | 1017.1 hPa | 0 mm | - | 23 W/m² | - |
| 1777889978 | 10° C | 65% | 1017.1 hPa | 0 mm | - | 20 W/m² | - |
| 1777889675 | 10° C | 65% | 1017.2 hPa | 0 mm | - | 16 W/m² | - |
| 1777889372 | 10° C | 65% | 1017.1 hPa | 0 mm | - | 13 W/m² | - |
| 1777889070 | 10° C | 66% | 1017.1 hPa | 0 mm | - | 10 W/m² | - |
| 1777888767 | 10° C | 66% | 1017 hPa | 0 mm | - | 7 W/m² | - |
| 1777888464 | 9.44° C | 66% | 1017.1 hPa | 0 mm | - | 5 W/m² | - |
| 1777888159 | 9.44° C | 65% | 1017.1 hPa | 0 mm | - | 3 W/m² | - |
| 1777887857 | 9.44° C | 65% | 1017 hPa | 0 mm | - | 1 W/m² | - |
| 1777887554 | 9.44° C | 65% | 1016.8 hPa | 0 mm | - | 1 W/m² | - |
| 1777887249 | 9.44° C | 65% | 1017 hPa | 0 mm | - | 0 W/m² | - |
| 1777886946 | 9.44° C | 65% | 1016.7 hPa | 0 mm | - | 0 W/m² | - |
| 1777886641 | 9.44° C | 66% | 1016.9 hPa | 0 mm | - | 0 W/m² | - |
| 1777886339 | 9.44° C | 66% | 1016.9 hPa | 0 mm | - | 0 W/m² | - |
| 1777886037 | 9.44° C | 66% | 1016.8 hPa | 0 mm | - | 0 W/m² | - |
| 1777885735 | 9.44° C | 66% | 1016.8 hPa | 0 mm | - | 0 W/m² | - |
| 1777885432 | 9.44° C | 65% | 1016.9 hPa | 0 mm | - | 0 W/m² | - |
| 1777885131 | 9.44° C | 64% | 1016.9 hPa | 0 mm | - | 0 W/m² | - |
| 1777884828 | 9.44° C | 64% | 1016.8 hPa | 0 mm | - | 0 W/m² | - |
| 1777884524 | 9.44° C | 65% | 1016.6 hPa | 0 mm | - | 0 W/m² | - |
| 1777884222 | 9.44° C | 64% | 1016.7 hPa | 0 mm | - | 0 W/m² | - |
* Rain latest hour (hover to see other rain measurements)
** Current wind speed in m/s (hover to see current wind gust speed)